This is the latest recevied weather packets stored in our database for station/object IR4UCA-3. If no packets are shown the sender has not sent any weather packets the latest 1 day(s).
| Time | Temp. | Humidity | Pressure | Rain* | Wind** | Luminosity | Snow |
|---|---|---|---|---|---|---|---|
| 1778008154 | 18.33° C | 84% | 1011.7 hPa | 0 mm | 0.45 m/s, 0° | - | - |
| 1778008030 | 18.33° C | 84% | 1011.6 hPa | 0 mm | 1.79 m/s, 0° | - | - |
| 1778007921 | 18.33° C | 84% | 1011.7 hPa | 0 mm | 1.34 m/s, 4° | - | - |
| 1778007791 | 18.33° C | 84% | 1011.6 hPa | 0 mm | 0.89 m/s, 0° | - | - |
| 1778007669 | 18.33° C | 84% | 1011.6 hPa | 0 mm | 0 m/s | - | - |
| 1778007543 | 18.33° C | 84% | 1011.6 hPa | 0 mm | 0.45 m/s, 0° | - | - |
| 1778007423 | 18.33° C | 84% | 1011.6 hPa | 0 mm | 0.45 m/s, 0° | - | - |
| 1778007315 | 18.33° C | 83% | 1011.5 hPa | 0 mm | 0.89 m/s, 0° | - | - |
| 1778007182 | 18.33° C | 83% | 1011.5 hPa | 0 mm | 0.45 m/s, 0° | - | - |
| 1778007061 | 18.33° C | 83% | 1011.5 hPa | 0 mm | 0.89 m/s, 0° | - | - |
| 1778006941 | 18.33° C | 83% | 1011.5 hPa | 0 mm | 0.89 m/s, 0° | - | - |
| 1778006822 | 18.33° C | 83% | 1011.5 hPa | 0 mm | 0.45 m/s, 0° | - | - |
| 1778006705 | 18.33° C | 83% | 1011.4 hPa | 0 mm | 0.89 m/s, 0° | - | - |
| 1778006582 | 18.33° C | 83% | 1011.4 hPa | 0 mm | 1.34 m/s, 0° | - | - |
| 1778006462 | 18.33° C | 83% | 1011.4 hPa | 0 mm | 1.34 m/s, 0° | - | - |
| 1778006340 | 18.33° C | 83% | 1011.4 hPa | 0 mm | 1.79 m/s, 0° | - | - |
| 1778006220 | 18.89° C | 83% | 1011.4 hPa | 0 mm | 1.79 m/s, 0° | - | - |
| 1778006098 | 18.89° C | 82% | 1011.4 hPa | 0 mm | 1.79 m/s, 0° | - | - |
| 1778005981 | 18.89° C | 83% | 1011.4 hPa | 0 mm | 0.89 m/s, 65° | - | - |
| 1778005860 | 18.89° C | 83% | 1011.4 hPa | 0 mm | 0.89 m/s, 65° | - | - |
| 1778005738 | 18.89° C | 83% | 1011.4 hPa | 0 mm | 0.45 m/s, 65° | - | - |
| 1778005616 | 18.89° C | 83% | 1011.4 hPa | 0 mm | 0.89 m/s, 65° | - | - |
| 1778005494 | 18.89° C | 83% | 1011.4 hPa | 0 mm | 0.89 m/s, 66° | - | - |
| 1778005373 | 18.89° C | 83% | 1011.4 hPa | 0 mm | 1.34 m/s, 71° | - | - |
| 1778005259 | 18.89° C | 83% | 1011.3 hPa | 0 mm | 1.34 m/s, 71° | - | - |
* Rain latest hour (hover to see other rain measurements)
** Current wind speed in m/s (hover to see current wind gust speed)